Location: Newark
(50.0953°N, 2.1719°E)
Time: 11:26:30
(UTC+00:00)

N. Korean satellite - Pass Details

Date: 20 January 2020
Orbit: 456 x 505 km, 97.2° (Epoch: 26 February)

Event Time Altitude Azimuth Distance (km) Brightness Sun altitude
Rises 06:15:47 0° 7° (N) 2,515 10.1 -13.3°
Reaches altitude 10° 06:17:52 10° 1° (N) 1,641 9.1 -12.9°
Maximum altitude 06:21:14 44° 288° (WNW) 666 6.8 -12.4°
Drops below altitude 10° 06:24:38 10° 216° (SW) 1,653 9.1 -11.9°
Sets 06:26:45 0° 210° (SSW) 2,537 10.1 -11.6°
